Back to catalog

ATLAS 5 CENTAUR R/B

AliveHEO
NORAD 38094·ROCKET BODY·🇺🇸 United States

Launched Feb 24, 2012 from Cape Canaveral Space Force Station

Loading…

Next Passes (next 24 hours)

TLE

FreshSource: Space-Track

Epoch: Sep 13, 2026, 02:37 UTC

1 38094U 12009B   26256.10947785 -.00000140  00000-0  00000+0 0  9993
2 38094  18.7829 337.1233 6237204 329.7214 262.6871  2.11803787112592

Track ATLAS 5 CENTAUR R/B in real time with AllMySat

Download on the App Store